Погода Сумы

Хотите узнать прогноз погоды Сумы? Тогда Вам сюда: Погода Сумы

Поиск расширенной информации на нашем сайте:

Полезная информация:

Новости сайта



02.01.2020
Опубликован Долгосрочный прогноз погоды по городам России и ближнего зарубежья на январь 2020 года.
Карты: Прогноз на январь и февраль 2020 года, Сравнение прогнозируемой аномалии приземной температуры воздуха на январь 2020 года по разным моделям.




Погода Сумы - сегодня

Время (UTC), дата Ветер
(°,м/с) 
Видим.   Явления Облачность Т
(°С)
Тd
(°С)
f(%) Тe
(°С)
Pmin
(гПа)
dP
(гПа)
Po
(мм)
O2
(г/м3)
Тmin Tmax R s Состояние
почвы
21 15.01.22 310 (СЗ) 10 км    8/0 средняя 
[Ac trans]
-0.7 -2.2 90 -4  1009.7  2.9  740  299           
00 16.01.22 310 (СЗ) 10 км    10/6 1200 м средняя 
[Sc|Ac und]
-0.6 -1.8 92 -2  1011.6  1.9  742  300           
03 16.01.22 290 (З) 10 км    10/4 1000 м средняя 
[Sc|Ac und]
-0.7 -3.2 83 -4  1012.4  0.8  742  300           
06 16.01.22 290 (З) 10 км  слаб. крупа{ливн. осадки}  10/8 1000 м кучево-дожд., средняя 
[Cb calv|Ac und]
-0.4 -3.8 78 -3  1014  1.6  743  300  -1.6    0.0  равномерный
сухой снег
100% 
09 16.01.22 300 (СЗ) 10 км  слаб. ливневой снег  9/5 1000 м кучево-дожд., средняя 
[Cb calv|Ac trans]
-0.4 -3.1 82 -3  1015.3  1.2  744  301           
12 16.01.22 290 (З) 10 км  {ливн. осадки}  8/6 1200 м средняя 
[Sc|Ac trans]
+0.2 -3.5 76 -3  1015.5  0.3  745  300      0.3     
15 16.01.22 270 (З) 10 км    10/8 1080 м средняя 
[Sc|Ac und]
-0.5 -4.2 76 -1  1016.6  745  301           
18 16.01.22 270 (З) 10 км    10/8 1200 м средняя 
[Sc|Ac und]
-1.4 -5.4 74 -3  1016.4  -0.3  745  302    +0.2  0.3     
00 17.01.22 200 (Ю) 10 км    8/8 840 м 
[Sc]
-2.5 -6.9 72 -5  1013  -2.3  743  303           
03 17.01.22 200 (Ю) 10 км    4/0 верхняя 
[Ci fib]
-2.7 -6.4 76 -7  1009.5  -3.4  740  302           
06 17.01.22 190 (Ю) 10 км    8/0 средняя 
[Ac trans]
-3.1 -6.2 79 -8  1005.4  -4.1  737  301  -3.2      равномерный
мокрый или
старый снег
100% 
09 17.01.22 210 (ЮЗ) 11  4000 м  слаб. ливневой снег  10/8 420 м кучево-дожд., средняя 
[Cb calv|Ac und]
-2.3 -3.2 94 -8  1001.6  -3.6  734  299           
12 17.01.22 200 (Ю) 11  4000 м  слаб. ливневой снег  10/8 480 м кучево-дожд., средняя 
[Cb calv|Ac und]
-1.8 -2.9 92 -7  998.4  -3.1  732  297      0.6     
15 17.01.22 290 (З) 11  2000 м  слаб. ливневой снег  10/8 570 м кучево-дожд., средняя 
[Cb calv|Ac und]
-1.9 -3 92 -8  995.6  -2.7  730  296           
18 17.01.22 190 (Ю) 4000 м  слаб. снег{ливн. осадки}  10/9 180 м средняя 
[Frnb|As op]
-1.1 -1.8 95 -5  993.6  -1.9  728  295    -1.1     
21 17.01.22 220 (ЮЗ) 4000 м  слаб. снег  10/9 150 м средняя 
[Frnb|As op]
-0.7 -1.4 95 -4  992.1  -1.4  727  294           
00 18.01.22 280 (З) 10 км  {снег}  4/0 средняя 
[Ac trans]
-1.7 -2.2 96 -5  993.6  1.3  728  296      0.8     
03 18.01.22 260 (З) 10 км    6/0 средняя 
[Ac trans]
-2.2 -3.1 94 -3  993.9  0.3  729  296           
06 18.01.22 310 (СЗ) 4000 м  слаб. снег  10/9 150 м средняя 
[Frnb|As op]
-4.2 -5.4 91 -9  997.9  3.7  731  300  -4.2    равномерный
сухой снег
100% 
09 18.01.22 300 (СЗ) 4000 м  слаб. снег  10/9 330 м средняя 
[Frnb|As op]
-4.7 -6 91 -10  1001.1  3.1  734  301           
12 18.01.22 310 (СЗ) 4000 м  слаб. снег  10/9 330 м средняя 
[Frnb|As op]
-5.2 -6.6 90 -10  1003.6  2.4  735  303         
15 18.01.22 310 (СЗ) 2000 м  слаб. снег  10/9 270 м средняя 
[Frnb|As op]
-5.9 -6.6 95 -11  1007.2  3.5  738  305           
18 18.01.22 320 (СЗ) 2000 м  слаб. снег  10/9 210 м средняя 
[Frnb|As op]
-5.8 -6.5 95 -11  1010.8  3.5  741  306    -4.2     
21 18.01.22 340 (С) 10 км  позёмок{снег}  10/4 300 м средняя 
[St|Ac und]
-5.3 -7.8 83 -10  1014.5  3.6  743  306           
00 19.01.22 350 (С) 10 км  позёмок{снег}  10/10 540 м 
[Sc]
-5.1 -8.3 78 -10  1017.2  2.7  745  307      0.5     
Время (UTC), дата Ветер
(°,м/с) 
Видим.   Явления Облачность Т
(°С)
Тd
(°С)
f(%) Тe
(°С)
Pmin
(гПа)
dP
(гПа)
Po
(мм)
O2
(г/м3)
Тmin Tmax R s Состояние
почвы

Для получения пояснительной информации подведите курсор к названию столбца.

ПОГОДА Сумы - архив

Всё, что Вы хотите узнать о погоде Сумы - удобно и подробно!

Выберите нужную дату (начиная с 1 января 2019* года) и нажмите кнопку "Найти".
Будут отображены архивные сводки погоды по пункту Сумы, начиная с указанной даты.


Отображать данные в формате CSV (для использования в таблицах Excel)


Внимание! Наш архив погоды предназначен исключительно для личного некоммерческого использования в познавательных целях. Если Вам необходимы официальные справки о состоянии погоды (для производственных, юридических, коммерческих и т.п. целей), обращайтесь в органы Росгидромета.

*Примечание: данная дата относится к архиву по метеостанциям СССР (Россия, СНГ, Балтия).
Архив по метеостанциям Зарубежной Европы и Азии (кроме Китая) хранится 10 дней, по другим регионам земного шара (Китай, Африка, Америка, Австралия, Океания) - 1 день.

Сумы - район местоположения метеостанции


Название, широта, долгота, высота метеостанции:
Сумы 50.9°ш. 34.7°д. 181 м над ур. моря [Украина]

Дополнительная информация

В oтличие oт бoльшинства пoгoдных сайтoв мы публикуем пoдрoбную метеoинфoрмацию в детальнoм прoфессиoнальнoм фoрмате.

Характеристики температуры и влажнoсти вoздуха измеряются на высoте 2 м в тени вдали oт зданий и деревьев.
Скoрoсть ветра измеряется на высoте 10 м (на урoвне рoста челoвека скoрoсть ветра ниже в 1.5-2 раза). Если метеoстанция нахoдится в гoрoде или в лесу, тo скoрoсть ветра занижена на 2-4 м/с пo сравнению с oткрытым местoм. Скoрoсть ветра над акватoриями крупных рек и oзёр, а также на вершинах хoлмoв на 2-5 м/с выше, чем в oбычных услoвиях.
Атмoсфернoе давление в разных тoчках местнoсти мoжет значительнo oтличаться oт давления на метеoстанции, в зависимoсти oт услoвий рельефа (при пoдъёме на 10 м давление пoнижается примернo на 1 мм рт.ст.).